Location: Belrupt
(48.0872°N, 6.0914°E)
Time: 18:56:00
(UTC+00:00)

Daily predictions for brighter satellites

Satellite Brightness Start Highest point End
(mag) Time Altitude Azimuth Time Altitude Azimuth Time Altitude Azimuth
Cosmos 2278 Rocket 3.0 20:12:30 10° NNW 20:17:52 41° NE 20:23:12 10° ESE
Ariane Rocket 4.0 20:16:07 10° S 20:21:01 46° W 20:25:57 10° NNW
Terra 3.2 20:17:29 10° ESE 20:21:20 25° ENE 20:25:11 10° N
ATLAS CENTAUR R/B 2.6 20:17:34 10° NW 20:21:40 41° WSW 20:25:59 10° S
Cosmos 2322 3.7 20:16:07 10° SSW 20:21:45 75° ESE 20:27:25 10° NNE
SPOT 1/Viking Rocket 3.6 20:17:38 10° SSE 20:22:44 72° ENE 20:27:53 10° N
Cosmos 1943 Rocket 4.4 20:21:07 10° N 20:24:03 14° NE 20:26:59 10° ENE
Cosmos 1975 Rocket 3.9 20:21:35 10° SSW 20:25:53 54° WNW 20:30:15 10° N
COSMOS 2428 2.8 20:22:32 10° S 20:28:09 59° ESE 20:33:48 10° NE
Cosmos 968 Rocket 3.6 20:23:22 10° NNW 20:28:31 70° ENE 20:33:38 10° SSE
Cosmos 1953 3.5 20:27:03 10° NNW 20:30:55 43° W 20:34:46 10° SSW
USA 245 4.4 20:25:36 10° SSE 20:31:05 77° ENE 20:37:18 10° N
Cosmos 1725 Rocket 4.1 20:25:24 10° N 20:31:36 70° E 20:37:46 10° SSE
IGS 5A 4.3 20:31:57 10° S 20:35:58 48° W 20:40:03 10° NNW
ATLAS 3B R/B 2.7 20:32:09 10° SW 20:38:43 85° NW 20:45:34 10° NE
NOSS 0 Rocket 4.4 20:35:31 10° S 20:41:14 41° ESE 20:47:01 10° NE
Cosmos 389 Rocket 3.5 20:39:23 10° N 20:42:30 31° ENE 20:45:18 12° SE
SPOT 5 3.1 20:43:25 10° SSE 20:48:12 57° ENE 20:52:50 10° N
Cosmos 1992 Rocket 4.3 20:43:35 10° S 20:48:32 46° ESE 20:53:32 10° NNE
Cosmos 1486 Rocket 4.0 20:47:20 10° NNW 20:52:35 83° ENE 20:57:23 12° SSE
SPOT 3 Rocket 4.5 20:48:09 10° S 20:53:07 46° W 20:58:08 10° NNW
Cosmos 1980 4.2 20:51:14 10° S 20:56:30 41° ESE 21:01:48 10° NE
SJ 16-02 3.7 20:55:10 10° NNE 20:57:15 13° NE 20:59:20 10° ENE
ATLAS 2A CENTAUR R/B 4.4 20:51:35 10° SW 20:58:22 15° SSW 21:02:15 10° SSE
Cosmos 2219 Rocket 2.6 20:55:26 10° SW 21:01:06 69° WNW 21:06:47 10° NNE
Cosmos 1867 4.0 20:56:05 10° NW 21:01:28 58° WSW 21:06:16 13° SSE
Resurs 01 Rocket 3.4 20:58:21 10° SSW 21:02:07 27° W 21:05:54 10° NW
FALCON 9 DEB 4.4 21:03:06 10° W 21:06:05 39° NNW 21:09:04 10° ENE
Cosmos 405 4.4 21:04:41 10° NNW 21:07:50 33° W 21:10:58 10° SSW
ERS-1 Rocket 3.0 21:03:38 13° SSE 21:08:14 86° ENE 21:13:19 10° NNW
Cosmos 1606 Rocket 3.9 21:05:02 10° N 21:09:26 55° ENE 21:12:47 16° SSE
Cosmos 1354 Rocket 4.3 21:06:54 10° NNW 21:12:14 63° ENE 21:16:26 16° SE
X-37B 1.3 21:09:40 10° SW 21:12:32 31° SSE 21:15:07 12° E
Cosmos 1346 Rocket 2.8 21:14:19 11° S 21:18:06 74° E 21:22:08 10° NNE
Cosmos 1892 Rocket 4.3 21:15:21 17° SSE 21:18:15 36° E 21:22:21 10° NNE
SL-23 DEB 4.5 21:14:19 10° WNW 21:18:16 83° NNE 21:25:06 10° ESE
Geosat 4.0 21:14:16 16° SE 21:18:20 80° ENE 21:23:23 10° NNW
Cosmos 2333 Rocket 3.4 21:13:57 10° SW 21:19:28 46° NW 21:24:58 10° NNE
Cosmos 1455 2.8 21:16:44 10° N 21:20:22 41° ENE 21:22:38 20° SE
Cosmos 2228 3.0 21:19:14 10° N 21:23:40 88° WSW 21:27:02 17° S
H-2A R/B 3.8 21:20:05 10° NNE 21:24:03 46° E 21:26:46 18° SSE
Spot 2 Rocket 4.2 21:19:27 10° S 21:24:21 49° W 21:29:18 10° NNW
Cosmos 2237 Rocket 2.2 21:22:46 10° SSW 21:28:19 66° ESE 21:33:55 10° NNE
SL-16 R/B 3.3 21:26:40 17° SE 21:29:29 26° ESE 21:34:03 10° NE
SL-4 R/B 2.0 21:27:17 10° WSW 21:31:31 82° NNW 21:35:24 10° ENE
Cosmos 2233 Rocket 4.3 21:26:37 10° NNW 21:32:43 66° W 21:38:24 12° S
Meteor 1-4 Rocket 4.4 21:30:12 10° NNE 21:32:45 19° ENE 21:34:25 14° ESE
Cosmos 1300 4.5 21:30:14 10° NNW 21:33:28 27° W 21:36:42 10° SSW
Cosmos 1607 4.1 21:27:37 10° NW 21:34:00 68° WSW 21:38:39 19° SSE
Cosmos 2369 Rocket 4.1 21:29:39 10° N 21:34:05 22° NE 21:38:29 10° E
ARIANE 5 R/B 3.8 21:33:34 11° SSW 21:37:37 37° W 21:41:50 10° NNW
Meteor 2-10 Rocket 4.0 21:38:48 10° NNW 21:43:42 54° W 21:47:42 15° S
Lacrosse 5 rocket 3.8 21:42:02 10° WNW 21:44:52 21° N 21:47:41 10° NE
USA 267 4.4 21:40:49 10° E 21:46:56 44° N 21:53:03 10° WNW
Meteor 2-1 Rocket 4.3 21:46:38 10° N 21:52:11 70° ENE 21:55:49 23° SSE
FALCON 9 DEB 4.5 21:49:43 10° WNW 21:52:59 39° N 21:56:13 10° E
ATLAS CENTAUR R/B 3.3 21:52:00 14° SSW 21:55:53 52° ESE 22:06:43 10° NE
Terra 2.6 21:55:24 17° SSW 21:58:50 46° W 22:03:26 10° NNW
Cosmos 2278 Rocket 3.2 21:56:43 10° NW 22:01:56 38° WSW 22:05:45 17° SSW
Cosmos 1943 Rocket 2.5 22:03:37 10° NNW 22:09:04 57° ENE 22:12:41 21° SE
Cosmos 2297 3.8 22:03:46 10° NNW 22:09:25 70° ENE 22:12:58 23° SE
Cosmos 724 4.4 22:06:52 10° NW 22:13:03 78° WSW 22:16:45 25° SSE
Cosmos 1174 4.4 22:11:34 16° SSW 22:16:06 63° ESE 22:20:40 10° NE
Lacrosse 4 Rocket 4.1 22:17:04 10° N 22:18:49 12° NNE 22:20:35 10° ENE
Cosmos 1184 Rocket 3.7 22:20:41 22° SW 22:22:24 43° WNW 22:25:32 10° N
Cosmos 1464 Rocket 4.2 22:22:12 10° NNW 22:28:32 68° W 22:32:40 23° S
Cosmos 1812 Rocket 4.0 22:24:31 10° N 22:28:49 51° ENE 22:30:41 30° SE
Cosmos 1441 Rocket 3.6 22:31:15 26° SSW 22:33:13 58° WNW 22:36:58 10° N
Cosmos 1777 Rocket 4.3 22:28:05 10° NNW 22:33:17 58° WSW 22:35:58 28° S
USA 229 DEB 3.9 22:30:08 25° S 22:33:31 46° ESE 22:39:57 10° NE
USA 229 3.9 22:30:18 25° S 22:33:38 46° ESE 22:40:02 10° NE
COBE Rocket 4.0 22:32:01 29° SSE 22:34:31 71° ENE 22:39:21 10° N
Cosmos 1634 Rocket 4.5 22:30:13 10° N 22:36:25 52° ENE 22:40:09 24° SE
SJ 16-02 1.3 22:32:09 10° NNW 22:36:32 87° ENE 22:38:21 35° SSE
NOSS 3-1 (C) 3.2 22:35:28 19° SSW 22:39:21 72° SE 22:45:38 10° NE
Cosmos 2058 Rocket 4.2 22:37:08 10° NNW 22:41:11 36° W 22:43:26 21° SW
GEOS 3 Rocket 3.9 22:40:04 18° ESE 22:44:01 67° NE 22:49:19 10° NW
Okean 1-7 Rocket 4.1 22:42:01 22° SW 22:44:39 53° WNW 22:48:59 10° N
Cosmos 1816 Rocket 4.4 22:43:18 26° S 22:47:01 89° W 22:53:12 10° N
X-37B 2.0 22:45:48 10° WSW 22:47:25 26° WSW 22:47:25 26° WSW
Meteor 1-11 4.2 22:47:14 30° S 22:50:03 70° E 22:55:37 10° NNE
Aureole 3 4.0 22:46:40 10° N 22:50:54 64° E 22:53:15 31° SSE
FALCON 9 DEB 4.4 22:48:10 10° WNW 22:51:06 37° NNE 22:54:00 10° E
NOSS 2-3 (E) 3.5 22:49:23 31° SSW 22:51:17 72° SE 22:56:07 10° NE
NOSS 3-1 (A) 3.4 22:50:45 30° S 22:53:16 54° ESE 22:59:21 10° NE
Meteor 1-27 4.5 22:48:05 10° N 22:53:37 61° ENE 22:56:32 28° SE
EP 2 4.4 22:53:54 71° S 22:54:04 75° SE 22:57:07 10° NE
USA 215 3.5 22:48:39 10° ENE 22:54:57 48° SE 22:58:45 24° SSW
Cosmos 1825 Rocket 4.4 22:54:38 30° SE 22:56:03 39° E 23:00:12 10° NNE
Cosmos 1937 Rocket 4.4 22:57:54 10° NNW 23:03:00 43° ENE 23:06:27 19° ESE
SAR-Lupe-2 4.2 22:59:36 10° NNE 23:03:00 38° E 23:03:30 36° ESE
FALCON 9 DEB 4.2 23:00:17 10° WNW 23:03:15 39° NNE 23:06:12 10° E
FALCON 9 DEB 4.4 23:01:54 10° WNW 23:04:52 37° NNE 23:07:48 10° E
CREW DRAGON DEMO-1 DEB 3.5 23:06:11 37° NE 23:06:11 37° NE 23:07:54 10° ENE
USA 307 4.1 23:06:51 26° ESE 23:06:51 26° ESE 23:09:50 10° ENE
Cosmos 1869 3.8 23:03:24 10° N 23:07:24 50° ENE 23:08:45 34° SE
Meteor 1-4 Rocket 3.7 23:04:44 10° NNW 23:07:47 29° W 23:08:33 26° WSW
Cosmos 1898 Rocket 3.7 23:05:25 10° NNW 23:10:39 65° ENE 23:13:23 28° SE
SL-4 R/B 2.8 23:07:28 10° WNW 23:11:22 48° N 23:14:58 10° ENE
Cosmos 1932 4.5 23:05:20 10° NW 23:11:35 81° NE 23:15:42 23° SE
ATLAS 5 CENTAUR R/B 3.3 23:13:06 15° ESE 23:13:06 15° ESE 23:15:17 10° ENE
Cosmos 2237 Rocket 4.2 23:08:12 10° WSW 23:12:52 26° NW 23:17:35 10° N
SL-16 R/B 2.7 23:08:29 15° SW 23:13:12 58° WNW 23:18:49 10° NNE
GP-B 3.1 23:08:59 10° N 23:13:27 75° E 23:15:02 39° SSE
Cosmos 405 Rocket 3.7 23:16:45 29° ESE 23:17:22 31° E 23:20:41 10° NNE
Cosmos 2369 Rocket 2.2 23:13:06 10° NNW 23:18:52 84° WSW 23:21:43 31° SSE
Cosmos-2242 3.0 23:17:11 10° NNW 23:21:35 78° W 23:23:04 41° S
USA 308 3.6 23:22:32 35° SE 23:22:32 35° SE 23:26:18 10° ENE
ALOS 2 3.0 23:21:22 36° SSW 23:22:51 53° W 23:27:10 10° NNW
Cosmos 1953 Rocket 4.0 23:22:51 35° SE 23:24:15 50° E 23:28:32 10° NNE
Lacrosse 5 rocket 3.5 23:21:56 10° NW 23:24:53 23° NNE 23:27:51 10° ENE
DELTA 2 R/B (1) 4.3 23:22:43 10° WSW 23:28:35 31° SSE 23:32:34 10° ESE
USA 267 3.4 23:22:59 10° ESE 23:29:30 76° NNE 23:36:03 10° NW
FALCON 9 DEB 2.9 23:26:38 10° WNW 23:30:02 70° SSW 23:30:16 67° S
Cosmos 468 Rocket 3.9 23:29:10 35° S 23:31:25 77° ESE 23:36:41 10° NNE
NOSS 2-3 (D) 4.0 23:29:39 19° WSW 23:32:33 60° NW 23:37:29 10° NE
Cosmos 2142 Rocket 4.4 23:28:04 10° N 23:34:15 89° W 23:37:27 31° S
USA 305 3.1 23:36:41 44° SSE 23:37:14 48° SE 23:41:20 10° ENE
Cosmos 1763 Rocket 3.4 23:35:39 34° SSW 23:37:54 85° ESE 23:43:06 10° NNE
Cosmos 1758 Rocket 4.0 23:37:04 32° SW 23:38:52 54° WNW 23:43:10 10° N
Cosmos 1842 Rocket 4.5 23:38:43 10° N 23:42:52 41° ENE 23:44:54 25° SE
Cosmos 858 Rocket 4.5 23:38:00 10° NNW 23:43:20 83° ENE 23:45:58 30° SSE
Cosmos 1408 2.5 23:42:43 53° SSW 23:43:31 86° W 23:47:15 10° N
Cosmos 2263 4.1 23:38:26 10° NNW 23:44:07 74° WSW 23:46:48 32° SSE
Cosmos 1606 4.4 23:41:24 10° NNE 23:44:40 26° ENE 23:46:27 18° ESE
Cosmos 2221 3.0 23:47:11 10° N 23:51:23 51° ENE 23:53:10 30° SE
CZ-2D R/B 4.3 23:49:29 10° NE 23:52:18 15° E 23:55:07 10° ESE
Cosmos 1943 Rocket 3.5 23:48:00 10° NW 23:52:26 25° WSW 23:54:11 21° SW
